Weather observations for the past three days for
Sierra Blanca Regional Airport
Metric (Imperial)
Date Time (mdt) Wind (kph) Vis. (km) Weather Sky Cond. Temperature (ºC) Relative Humidity Wind Chill (°C) Heat Index (°C) Pressure Precipitation (cm)
Air Dwpt 6 hour altimeter (cm) sea level (mb) 1 hr 3 hr 6 hr
Max. Min.
09 21:15 SW 24 0.00 NULL NULL 0 0 0% 76.38 0.0
09 20:55 SW 11 0.00 NULL NULL 0 0 0% 76.38 0.0
09 19:35 W 9 0.00 NULL NULL 0 0 0% 76.33 0.0
09 18:15 W 13 0.00 NULL NULL 0 0 0% 76.3 0.0
09 17:55 NW 15 0.00 NULL NULL 0 0 0% 0 0.0
09 16:55 N 15 0.00 NULL NULL 27 -9 9% 26 76.35 0.0
09 16:35 W 17 G 35 0.00 NULL NULL 0 0 0% 76.33 0.0
09 16:15 SW 7 0.00 NULL NULL 0 0 0% 76.35 0.0
09 15:55 SW 22 0.00 NULL NULL 0 0 0% 76.35 0.0
09 15:35 SW 17 0.00 NULL NULL 0 0 0% 76.38 0.0
09 15:15 W 28 G 35 0.00 NULL NULL 0 0 0% 76.4 0.0
09 14:55 W 22 G 35 0.00 NULL NULL 0 0 0% 76.43 0.0
09 14:35 W 24 G 39 0.00 NULL NULL 0 0 0% 76.43 0.0
09 14:15 W 17 G 26 0.00 NULL NULL 26 -8 10% 25 76.48 0.0
09 13:15 NW 17 G 28 0.00 NULL NULL 0 0 0% 76.5 0.0
09 12:35 NW 13 0.00 NULL NULL 0 0 0% 76.53 0.0
09 11:55 N 28 G 39 0.00 NULL NULL 0 0 0% 76.56 0.0
09 11:15 NW 11 16.09 NULL NULL 25 -8 11% 24 76.61 0.0
09 10:55 NW 26 G 33 16.09 NULL NULL 24 -8 11% 24 76.58 0.0
09 10:35 NW 26 G 35 16.09 NULL NULL 24 -8 11% 24 76.58 0.0
09 10:15 NW 11 G 33 16.09 NULL NULL 24 -8 11% 24 76.58 0.0
09 09:55 N 13 16.09 Fair CLR 23 -8 12% 76.58 0.0
09 09:35 Calm 16.09 Fair CLR 22 -7 14% 76.58 0.0
09 09:15 NE 9 16.09 Fair CLR 21 -7 15% 76.58 0.0
09 08:55 NE 9 16.09 Fair CLR 19 -8 15% 76.58 0.0
09 08:35 NE 9 16.09 Fair CLR 18 -8 16% 76.58 0.0
09 08:15 NE 7 16.09 Fair CLR 17 -7 19% 76.58 0.0
09 07:55 NE 6 16.09 Fair CLR 17 -7 19% 76.58 0.0
09 07:35 Calm 16.09 Fair CLR 16 -8 19% 76.56 0.0
09 07:15 Calm 16.09 Fair CLR 14 -7 23% 76.56 0.0
09 06:55 SW 9 16.09 Fair CLR 13 -7 24% 76.53 0.0
09 06:35 SW 9 16.09 Fair CLR 12 -8 24% 76.53 0.0
09 06:15 SW 7 16.09 Fair CLR 9 -8 29% 8 76.5 0.0
09 05:55 W 7 16.09 Fair CLR 13 -8 23% 76.5 0.0
09 05:35 W 17 16.09 Fair CLR 13 -8 23% 76.48 0.0
09 05:15 W 15 16.09 Fair CLR 13 -8 23% 76.48 0.0
09 04:55 W 15 16.09 Fair CLR 12 -8 24% 76.48 0.0
09 04:35 W 11 16.09 Fair CLR 13 -8 23% 76.45 0.0
09 04:15 W 7 16.09 NULL NULL 10 -8 28% 9 76.45 0.0
09 03:55 W 15 16.09 Fair CLR 12 -8 24% 76.45 0.0
09 03:35 SW 9 16.09 NULL NULL 12 -8 24% 76.45 0.0
09 02:35 SW 11 16.09 NULL NULL 13 -7 24% 76.48 0.0
09 02:15 W 9 16.09 NULL NULL 14 -7 23% 76.48 0.0
09 01:55 W 6 0.00 NULL NULL 0 0 0% 76.48 0.0
08 23:35 SW 11 0.00 NULL NULL 14 -6 25% 76.53 0.0
08 22:35 SE 9 0.00 NULL NULL 15 -7 21% 76.56 0.0
08 21:35 S 9 0.00 NULL NULL 0 0 0% 76.5 0.0
08 21:15 S 7 0.00 NULL NULL 0 0 0% 76.5 0.0
08 20:55 SE 15 0.00 NULL NULL 17 -6 20% 76.48 0.0
08 18:55 NE 11 0.00 NULL NULL 0 0 0% 76.35 0.0
08 18:35 NE 6 0.00 NULL NULL 0 0 0% 76.33 0.0
08 18:15 N 9 0.00 NULL NULL 24 -9 10% 24 76.35 0.0
08 16:35 E 11 0.00 NULL NULL 0 0 0% 76.3 0.0
08 16:15 N 22 G 30 0.00 NULL NULL 24 -8 11% 24 76.33 0.0
08 15:15 NW 17 0.00 NULL NULL 0 0 0% 76.35 0.0
08 14:35 W 24 0.00 NULL NULL 0 0 0% 76.35 0.0
08 14:15 SW 9 G 28 16.09 NULL NULL 23 -8 12% 76.4 0.0
08 13:55 W 15 0.00 NULL NULL 0 0 0% 76.38 0.0
08 13:15 NW 19 G 31 16.09 NULL NULL 22 -8 13% 76.43 0.0
08 12:55 N 20 G 28 0.00 NULL NULL 23 -8 12% 76.45 0.0
08 12:35 NW 9 G 37 16.09 NULL NULL 22 -7 14% 76.48 0.0
08 12:15 N 6 G 33 16.09 NULL NULL 21 -7 15% 76.48 0.0
08 11:55 NW 15 G 31 16.09 Fair CLR 20 -7 16% 76.5 0.0
08 11:35 N 15 G 31 16.09 Fair CLR 20 -7 16% 76.53 0.0
08 11:15 W 22 G 30 16.09 Fair CLR 20 -7 16% 76.53 0.0
08 10:55 N 15 G 28 16.09 Fair CLR 20 -8 14% 76.53 0.0
08 10:35 NW 17 G 35 16.09 Fair CLR 20 -8 14% 76.56 0.0
08 10:15 N 9 G 28 16.09 Fair CLR 20 -8 14% 76.56 0.0
08 09:55 NW 24 G 33 16.09 Fair CLR 19 -9 14% 76.56 0.0
08 09:35 NW 24 G 35 16.09 Fair CLR 19 -8 15% 76.56 0.0
08 09:15 NW 20 G 26 16.09 Fair CLR 18 -7 18% 76.56 0.0
08 08:55 NW 7 16.09 Fair CLR 17 -5 22% 76.58 0.0
08 08:35 NE 7 16.09 Fair CLR 16 -6 22% 76.58 0.0
08 08:15 W 9 16.09 Fair CLR 15 -7 21% 76.58 0.0
08 07:55 W 6 16.09 Fair CLR 14 -7 23% 76.56 0.0
08 07:35 N 7 16.09 Fair CLR 14 -7 23% 76.56 0.0
08 07:15 NW 6 16.09 Fair CLR 13 -7 24% 76.53 0.0
08 06:55 Calm 16.09 Fair CLR 11 -8 26% 76.5 0.0
08 06:15 NW 7 16.09 Fair CLR 9 -8 29% 8 76.48 0.0
08 05:55 W 11 16.09 Fair CLR 10 -7 30% 9 76.45 0.0
08 05:35 W 7 16.09 Fair CLR 9 -7 32% 8 76.45 0.0
08 05:15 N 6 16.09 Fair CLR 9 -7 32% 76.45 0.0
08 04:55 W 13 16.09 Fair CLR 11 -7 28% 76.45 0.0
08 04:15 W 11 16.09 Fair CLR 12 -7 26% 76.45 0.0
08 03:55 W 11 16.09 Fair CLR 10 -7 30% 9 76.45 0.0
08 03:35 W 13 16.09 Fair CLR 9 -7 32% 7 76.45 0.0
08 03:15 NW 9 16.09 Fair CLR 10 -7 30% 9 76.45 0.0
08 02:55 W 11 16.09 Fair CLR 12 -7 26% 76.48 0.0
08 02:35 N 7 16.09 Fair CLR 12 -7 26% 76.48 0.0
08 02:15 W 7 16.09 Fair CLR 12 -6 28% 76.48 0.0
08 01:55 SW 7 16.09 Fair CLR 9 -5 37% 8 76.5 0.0
08 01:35 W 6 16.09 Fair CLR 11 -4 35% 76.53 0.0
08 01:15 W 7 16.09 Fair CLR 9 -5 37% 8 76.53 0.0
08 00:55 W 9 16.09 Fair CLR 10 -5 35% 9 76.53 0.0
08 00:35 NW 7 16.09 Fair CLR 10 -3 40% 9 76.53 0.0
08 00:15 W 7 16.09 Fair CLR 11 -3 38% 76.56 0.0
07 23:55 SW 7 16.09 NULL NULL 11 -2 41% 76.56 0.0
07 23:15 SW 7 16.09 NULL NULL 12 -1 41% 76.56 0.0
07 22:55 S 7 16.09 Fair CLR 10 -1 47% 9 76.56 0.0
07 22:35 S 6 0.00 NULL NULL 0 0 0% 76.56 0.0
07 22:15 Calm 0.00 NULL NULL 0 0 0% 76.56 0.0
07 21:55 S 9 0.00 NULL NULL 0 0 0% 76.53 0.0
07 21:35 SE 9 0.00 NULL NULL 0 0 0% 76.53 0.0
07 20:35 SE 13 16.09 NULL NULL 13 0 41% 76.5 0.0
07 20:15 S 11 16.09 NULL NULL 14 0 39% 76.5 0.0
07 19:55 SE 15 0.00 NULL NULL 0 0 0% 76.48 0.0
07 19:15 E 19 16.09 NULL NULL 17 -1 30% 76.45 0.0
07 18:55 SE 22 G 31 0.00 NULL NULL 0 0 0% 76.43 0.0
07 16:35 E 20 0.00 NULL NULL 21 -5 17% 76.43 0.0
07 15:55 S 11 16.09 NULL NULL 21 -12 10% 76.45 0.0
07 13:15 S 7 16.09 NULL NULL 19 -5 19% 76.61 0.0
07 12:55 N 11 16.09 Fair CLR 18 -5 21% 76.63 0.0
07 12:35 N 9 16.09 Fair CLR 19 -5 19% 76.66 0.0
07 12:15 SE 7 16.09 Fair CLR 17 -2 27% 76.66 0.0
07 11:55 NW 7 16.09 Fair CLR 17 -4 24% 76.68 0.0
07 11:35 W 15 16.09 Fair CLR 17 -4 24% 76.68 0.0
07 11:15 NE 7 16.09 Fair CLR 16 -3 27% 76.71 0.0
07 10:55 NW 13 16.09 Fair CLR 15 -3 29% 76.71 0.0
07 10:35 SE 6 16.09 Fair CLR 14 -2 33% 76.73 0.0
07 10:15 E 7 16.09 Fair CLR 13 -1 38% 76.76 0.0
07 09:55 S 7 16.09 Fair CLR 12 0 44% 76.76 0.0
07 09:35 SE 7 16.09 Fair CLR 11 0 47% 76.76 0.0
07 09:15 SE 9 16.09 Fair CLR 10 0 50% 9 76.78 0.0
07 08:55 E 6 16.09 Fair CLR 9 0 54% 76.78 0.0
07 08:15 Calm 16.09 Fair CLR 7 1 66% 76.81 0.0
07 07:55 Calm 16.09 Fair CLR 5 1 76% 76.81 0.0
07 07:35 Calm 16.09 Fair CLR 4 0 75% 76.81 0.0
07 07:15 Calm 16.09 Fair CLR 4 0 75% 76.81 0.0
07 06:55 Calm 16.09 Fair CLR 3 0 81% 76.78 0.0
07 06:35 Calm 16.09 Fair CLR 2 0 87% 76.78 0.0
07 06:15 Calm 16.09 Fair CLR 1 0 93% 76.78 0.0
07 05:55 Calm 16.09 Fair CLR 1 0 93% 76.78 0.0
07 05:35 SE 7 16.09 Fair CLR 2 0 87% 0 76.78 0.0
07 05:15 S 9 16.09 Fair CLR 2 -1 81% -0 76.81 0.0
07 04:55 S 15 16.09 Fair CLR 1 -1 87% -3 76.81 0.0
07 04:35 S 15 16.09 Fair CLR 1 -1 87% -3 76.81 0.0
07 04:15 S 15 16.09 Fair CLR 1 -1 87% -3 76.81 0.0
07 03:55 S 13 16.09 Fair CLR 2 -1 81% -1 76.81 0.0
07 03:35 S 13 16.09 Fair CLR 2 -1 81% -1 76.81 0.0
07 03:15 S 13 16.09 Fair CLR 2 0 87% -1 76.78 0.0
07 02:55 S 13 16.09 Fair CLR 2 0 87% -1 76.78 0.0
07 02:35 S 13 16.09 Fair CLR 2 -1 81% -1 76.81 0.0
07 02:15 S 9 16.09 Fair CLR 3 0 81% 1 76.78 0.0
07 01:55 S 11 16.09 Fair CLR 3 0 81% 0 76.78 0.0
07 01:35 S 13 16.09 Fair CLR 4 0 75% 1 76.78 0.0
07 01:15 S 13 16.09 Fair CLR 4 0 75% 1 76.78 0.0
Date Time (mdt) Wind (kph) Vis. (km) Weather Sky Cond. Air Dwpt Max. Min. Relative Humidity Wind Chill (°C) Heat Index (°C) altimeter (cm) sea level (mb) 1 hr 3 hr 6 hr
6 hour
Temperature (ºC) Pressure Precipitation (cm)